[[{"header":{"parameterUnit":"m.s-1","parameterCategory":1,"la1":30.2992,"la2":30.254,"lo1":-89.0895,"lo2":-89.0443,"dy":0.0025,"dx":0.0025,"nx":19,"ny":19,"refTime":"2026-04-08T03:00:00:Z","depth":0,"parameterNumber":2,"parameterNumberName":"U-component_of_WINDS"},"data":[0,0,0,-8.0919,-8.0923,-8.1071,-8.1071,-8.1316,-8.1319,0,0,0,0,0,0,0,0,0,0,0,-8.0911,-8.0914,-8.0918,-8.0923,-8.1071,-8.1071,-8.1316,-8.1319,0,0,0,0,0,0,0,0,0,0,0,-8.0909,-8.0913,-8.0917,-8.0924,-8.1071,-8.1071,-8.1315,-8.1183,0,0,0,0,0,0,0,0,0,0,-8.103,-8.1058,-8.0912,-8.0917,-8.0925,-8.1071,-8.1071,-8.1176,-8.1192,-8.1274,0,-8.1358,0,-8.1343,-8.1339,-8.134,0,0,0,-8.0896,-8.1045,-8.1053,-8.0917,-8.0927,-8.1071,-8.0996,-8.1184,-8.1202,-8.1295,-8.1361,-8.1369,-8.1347,-8.1341,-8.1343,-8.1911,-8.1915,0,0,-8.0888,-8.0956,-8.1041,-8.1066,-8.1049,-8.0992,-8.1002,-8.1194,-8.127,-8.1362,-8.1374,-8.1351,-8.1343,-8.1346,-8.1908,-8.1912,0,0,0,-8.0883,-8.0952,-8.0953,-8.1058,-8.108,-8.0997,-8.1008,-8.1261,-8.1256,-8.1376,-8.1354,-8.1345,-8.1349,-8.1903,-8.1909,-8.2168,0,0,0,-8.0876,-8.0949,-8.0951,-8.0995,-8.1078,-8.1173,-8.1072,-8.1243,-8.1262,-8.1353,-8.1345,-8.1352,-8.1899,-8.1906,-8.2152,-8.2279,0,0,0,-8.0889,-8.0949,-8.0983,-8.0998,-8.1064,-8.1168,-8.1173,-8.1245,-8.1251,-8.1341,-8.1352,-8.1896,-8.1905,-8.2137,-8.2254,-8.2446,0,0,0,-8.0921,-8.1213,-8.0989,-8.1306,-8.1064,-8.1329,-8.1171,-8.1365,-8.1473,-8.1347,-8.1899,-8.1909,-8.2132,-8.2239,-8.2431,-8.2619,-8.2704,0,0,-8.1327,-8.1264,-8.1445,-8.1249,-8.1571,-8.1301,-8.1661,-8.1694,-8.164,-8.1824,-8.1837,-8.2157,-8.2252,-8.2443,-8.3163,-8.3232,0,0,0,-8.1596,-8.1727,-8.1797,-8.1904,-8.1938,-8.1976,-8.1947,-8.196,-8.2112,-8.1749,-8.2278,-8.2332,-8.2441,-8.2527,-8.2586,-8.2673,-8.1952,-8.1951,-8.195,-8.2266,-8.2182,-8.2474,-8.2408,-8.2513,-8.2481,-8.2557,-8.2568,-8.2452,-8.2579,-8.2632,-8.3079,-8.3183,-8.3226,-8.3319,-8.2726,-8.2727,-8.2728,-8.2729,-8.285,-8.302,-8.2859,-8.3085,-8.2993,-8.3181,-8.3162,-8.3073,-8.3234,-8.3032,-8.3124,-8.2909,-8.3304,-8.338,-8.2747,-8.2744,-8.2742,-8.274,-8.2739,-8.3277,-8.3343,-8.3354,-8.3498,-8.3619,-8.3541,-8.3703,-8.3614,-8.3531,-8.3622,-8.3667,-8.3662,-8.3644,-8.365,-8.3652,-8.3654,-8.3655,-8.3656,-8.3657,-8.3714,-8.3718,-8.3865,-8.3926,-8.3981,-8.4044,-8.4015,-8.4067,-8.4101,-8.4023,-8.4023,-8.3893,-8.336,-8.3225,-8.3681,-8.3676,-8.3673,-8.3671,-8.3669,-8.4331,-8.4177,-8.4406,-8.4462,-8.4524,-8.4648,-8.4534,-8.4648,-8.4678,-8.476,-8.4611,-8.4232,-8.4161,-8.4114,-8.4002,-8.463,-8.463,-8.463,-8.463,-8.4689,-8.4645,-8.4857,-8.4952,-8.5036,-8.4955,-8.5213,-8.5194,-8.5149,-8.5162,-8.5059,-8.4904,-8.4861,-8.4814,-8.4752,-8.4646,-8.5425,-8.5426,-8.5426,-8.5062,-8.5022,-8.5259,-8.5214,-8.5257,-8.5294,-8.5534,-8.5648,-8.5566,-8.5457,-8.517,-8.5136,-8.4885,-8.4808,-8.469,-8.4596,-8.4399,0,0]},{"header":{"parameterUnit":"m.s-1","parameterCategory":1,"la1":30.2992,"la2":30.254,"lo1":-89.0895,"lo2":-89.0443,"dy":0.0025,"dx":0.0025,"nx":19,"ny":19,"refTime":"2026-04-08T03:00:00:Z","depth":0,"parameterNumber":3,"parameterNumberName":"V-component_of_WINDS"},"data":[0,0,0,0.0323,0.0322,0.027,0.027,0.0221,0.0221,0,0,0,0,0,0,0,0,0,0,0,0.035,0.035,0.0323,0.0322,0.027,0.027,0.0221,0.0221,0,0,0,0,0,0,0,0,0,0,0,0.035,0.035,0.035,0.0322,0.027,0.027,0.0221,0.0254,0,0,0,0,0,0,0,0,0,0,0.0301,0.0337,0.035,0.035,0.0322,0.027,0.027,0.0255,0.0252,0.0253,0,0.0257,0,0.0239,0.0219,0.0219,0,0,0,0.0313,0.034,0.0316,0.035,0.0321,0.027,0.0291,0.0253,0.025,0.0249,0.0256,0.0254,0.0238,0.0219,0.0219,0.0255,0.0256,0,0,0.0316,0.0346,0.0319,0.0314,0.0324,0.0293,0.0289,0.0251,0.0261,0.0256,0.0252,0.0237,0.0219,0.0218,0.0255,0.0256,0,0,0,0.033,0.0349,0.0325,0.0317,0.0306,0.0291,0.0288,0.0262,0.0252,0.0252,0.0236,0.0218,0.0218,0.0254,0.0255,0.0315,0,0,0,0.0331,0.0357,0.0327,0.0345,0.0307,0.0284,0.0301,0.0255,0.0249,0.0237,0.0218,0.0218,0.0253,0.0255,0.0312,0.0338,0,0,0,0.0349,0.0359,0.0355,0.0346,0.0325,0.0283,0.0271,0.0253,0.0241,0.0219,0.0218,0.0253,0.0254,0.0309,0.0333,0.0357,0,0,0,0.0376,0.0407,0.0357,0.0385,0.0326,0.0321,0.0271,0.0265,0.0253,0.0218,0.0254,0.0255,0.0308,0.033,0.0355,0.0384,0.0399,0,0,0.0432,0.0415,0.043,0.0383,0.0395,0.0326,0.0347,0.0307,0.0276,0.0264,0.0265,0.0313,0.0333,0.0357,0.047,0.0482,0,0,0,0.0457,0.0469,0.0465,0.0456,0.0428,0.0405,0.0359,0.0345,0.0333,0.0276,0.0326,0.0337,0.035,0.0363,0.0373,0.0383,0.0262,0.0262,0.0262,0.0579,0.0541,0.0563,0.0518,0.051,0.0464,0.0454,0.0426,0.0387,0.04,0.0396,0.047,0.0486,0.0493,0.0504,0.0408,0.0408,0.0408,0.0408,0.0658,0.0668,0.0619,0.0622,0.0581,0.0583,0.054,0.0513,0.0509,0.0469,0.0478,0.0438,0.0508,0.0515,0.0412,0.0412,0.0411,0.0411,0.0411,0.0735,0.0733,0.0716,0.07,0.0693,0.0646,0.0646,0.0607,0.0571,0.058,0.0573,0.0572,0.0567,0.058,0.058,0.058,0.058,0.0581,0.0581,0.0821,0.08,0.0804,0.0778,0.0769,0.0751,0.0706,0.0695,0.0673,0.0645,0.0645,0.0607,0.0522,0.0502,0.0585,0.0584,0.0583,0.0583,0.0583,0.0916,0.0889,0.0897,0.0888,0.0854,0.0851,0.0802,0.0784,0.0769,0.0771,0.073,0.0674,0.0653,0.0645,0.0628,0.0738,0.0738,0.0738,0.0738,0.0982,0.0968,0.0968,0.0956,0.0939,0.0897,0.0907,0.0873,0.0833,0.0822,0.08,0.0775,0.0768,0.0751,0.074,0.0724,0.0856,0.0857,0.0857,0.1039,0.1022,0.1038,0.1,0.0972,0.0949,0.0958,0.0946,0.0894,0.0861,0.0813,0.0808,0.0766,0.0754,0.0719,0.0704,0.0673,0,0]}]]